Regional Weather Roundup
Issued by NWS

Home | Current Version | Previous Version | Graphics & Text | Print | Product List | Glossary On
Versions: 1 2 3 4 5 6 7 8 9 10 11 12 13 14 15 16 17 18 19 20 21 22 23 24 25 26 27
000
ASUS45 KBOU 250607
RWRCO

WEATHER ROUNDUP FOR COLORADO
NATIONAL WEATHER SERVICE DENVER/BOULDER CO
1200 AM MDT WED MAY 25 2016

NOTE: "FAIR" INDICATES FEW OR NO CLOUDS BELOW 12000 FEET WITH NO
SIGNIFICANT WEATHER AND/OR OBSTRUCTIONS TO VISIBILITY.

COZ001>005-013-030-031-250700-
...NORTHWEST COLORADO...

CITY           SKY/WX    TMP DP  RH WIND       PRES   REMARKS
CRAIG          FAIR      45  33  63 SE6       30.01R
HAYDEN         FAIR      45  30  57 E3        30.02S
MEEKER         FAIR      54  29  38 NW10      30.02R
MOUNT WERNER   NOT AVBL
STEAMBOAT SPGS FAIR      46  29  52 CALM      30.02S
WALDEN         FAIR      39  23  52 SE6       30.07S
$$

COZ006>008-011-250700-
...WEST CENTRAL VALLEYS...

CITY           SKY/WX    TMP DP  RH WIND       PRES   REMARKS
GRAND JUNCTION FAIR      55  25  31 N5        29.91R
MONTROSE       FAIR      50  25  37 SE7       30.00R
EAGLE          FAIR      46  23  39 E7        30.00S
RIFLE          CLOUDY    63  24  22 N6        29.95R
DELTA          FAIR      65  20  17 SW3       29.94S
NUCLA          FAIR      61  16  17 SW10      30.04R
$$

COZ017>023-064>068-250700-
...SOUTHWEST COLORADO...

CITY           SKY/WX    TMP DP  RH WIND       PRES   REMARKS
DURANGO        FAIR      49  15  25 CALM      30.08R
CORTEZ         FAIR      52  17  25 S9        30.05R
PAGOSA SPRINGS FAIR      43  19  38 CALM      30.14R
TELLURIDE      FAIR      49  13  23 SW8G23    30.18S
WOLF CREEK PAS FAIR      32  10  40 SW24G36   30.31S WCI  19
$$

COZ009-010-012-014-032>034-037-058>063-250700-
...CENTRAL COLORADO...

CITY           SKY/WX    TMP DP  RH WIND       PRES   REMARKS
ASPEN          FAIR      44  22  41 VRB5      30.04R
BUENA VISTA    FAIR      46  14  27 CALM      30.07R
COPPER MTN     NOT AVBL
BERTHOUD PASS  FAIR      30  21  69 W3        30.26S
COTTONWOOD PAS FAIR      50   5  16 SW9       30.16S
GUNNISON       FAIR      43  21  42 CALM      30.10R
KREMMLING      FAIR      50  21  32 NW8       30.04S
LEADVILLE      MOCLDY    39  20  46 N3        30.14S
MONARCH PASS   FAIR      34  10  37 MISG      30.35F
SALIDA         FAIR      51  13  22 W3        30.12R
SUNLIGHT       CLOUDY    39  23  52 CALM      30.21R
WILKERSON PASS FAIR      37  12  35 W8        30.24S
$$

COZ069>075-250700-
...SAN LUIS VALLEY/SANGRE DE CRISTO MOUNTAINS...

CITY           SKY/WX    TMP DP  RH WIND       PRES   REMARKS
ALAMOSA        FAIR      41  20  43 SW12      30.08R
LA VETA PASS   MOCLDY    45  10  24 S12G21    30.20S
SAGUACHE       FAIR      41  14  33 N5        30.09S
$$

COZ035-036-038>040-250700-
...NORTHERN COLORADO FRONT RANGE...

CITY           SKY/WX    TMP DP  RH WIND       PRES   REMARKS
DENVER INTL AP FAIR      54  47  77 SW3       29.89R
DMNS CITY PARK   N/A     57  47  68 SE7       29.89S
AURORA         PTCLDY    53  48  82 E2        29.90S
FRONT RANGE AP NOT AVBL
ERIE MUNI ARPT FAIR      50  47  88 CALM      29.87S
BOULDER MUN AP FAIR      55  45  67 S5        29.87S
CENTENNIAL     FAIR      51  45  79 SW9       29.91S
BROOMFIELD     FAIR      52  46  82 SW7       29.90S
FORT COLLINS   FAIR      54  46  76 CALM      29.89R
LONGMONT       FAIR      52  47  83 CALM      29.89R
$$

COZ041-046-047-076>085-087-088-250700-
...PIKES PEAK/PALMER DIVIDE AND SOUTHERN FOOTHILLS...

CITY           SKY/WX    TMP DP  RH WIND       PRES   REMARKS
COLO. SPRINGS  FAIR      63  10  12 W6        29.94S
A. F. ACADEMY  FAIR      48  23  37 VRB5      29.94S
SCHRIEVER AFB  NOT AVBL
ELLICOTT       FAIR     N/A N/A N/A W7        29.92S
FALCON         FAIR      51  19  28 W9        29.98S
FORT CARSON    FAIR      64  15  15 W7        29.91R
LIMON          FAIR      50  46  86 W10       29.88R
MONUMENT HILL  FAIR      43  41  93 W6        29.99F
TRINIDAD       FAIR      55  26  32 SW10      29.95S
$$

COZ042>045-048>051-090-091-250700-
...NORTHEAST COLORADO...

CITY           SKY/WX    TMP DP  RH WIND       PRES   REMARKS
GREELEY ARPT   FAIR      50  45  81 NW9       29.87R
AKRON          FAIR      57  54  89 E12       29.82S
BURLINGTON     FAIR      54  51  90 NE8       29.79R
WRAY           NOT AVBL
STERLING       CLOUDY    55  52  88 NE8       29.83R
HOLYOKE        FAIR      54  50  87 N6        29.84R
FORT MORGAN    CLOUDY    57  49  74 E12       29.84S
$$

COZ086-089-092>099-250700-
...SOUTHEAST COLORADO...

CITY           SKY/WX    TMP DP  RH WIND       PRES   REMARKS
PUEBLO         FAIR      58  30  34 W13       29.85R
LA JUNTA       FAIR      65  29  25 SW15      29.80R
LAMAR          FAIR      64  36  35 W5        29.76R
SPRINGFIELD      N/A     61  26  26 W7        29.83R
$$




USA.gov is the U.S. government's official web portal to all federal, state and local government web resources and services.